1495659600.85,36264,14.69,73460.0,-5.19,-6.31,-6.31,0,*58
1495659602.05,36265,14.69,73460.0,-5.17,-6.35,-6.35,0,*57
1495659603.24,36266,14.69,73462.3,-5.17,-6.39,-6.39,0,*54
1495659604.48,36267,14.63,73458.5,-5.17,-6.23,-6.27,0,*51
1495659605.68,36268,14.63,73456.0,-5.17,-6.13,-6.13,0,*5A
1495659606.88,36269,14.63,73458.8,-5.17,-6.09,-6.01,0,*53
1495659608.07,36270,14.69,73460.3,-5.13,-6.09,-6.09,0,*57
1495659609.29,36271,14.69,73456.5,-5.17,-6.13,-6.23,0,*51
1495659610.53,36272,14.69,73460.0,-5.13,-6.27,-6.23,0,*51
1495659611.73,36273,14.69,73456.8,-5.13,-6.09,-6.09,0,*54
1495659612.92,36274,14.63,73456.8,-5.13,-6.09,-6.05,0,*5F
1495659614.16,36275,14.69,73458.0,-5.17,-6.23,-6.23,0,*56
1495659615.39,36276,14.69,73458.5,-5.13,-6.09,-6.19,0,*50
1495659616.59,36277,14.69,73458.8,-5.13,-6.09,-6.09,0,*50
1495659617.83,36278,14.69,73456.5,-5.17,-6.23,-6.23,0,*5B
1495659619.02,36279,14.63,73456.8,-5.13,-6.09,-6.09,0,*5E
1495659620.22,36280,14.63,73458.5,-5.17,-6.13,-6.09,0,*57
1495659621.41,36281,14.63,73456.0,-5.17,-6.13,-6.13,0,*5D
1495659622.61,36282,14.69,73456.8,-5.17,-6.09,-6.13,0,*55
1495659623.81,36283,14.69,73460.8,-5.17,-6.09,-6.01,0,*57
1495659625.03,36284,14.63,73458.8,-5.17,-6.09,-6.23,0,*50
1495659626.27,36285,14.69,73458.0,-5.17,-6.23,-6.23,0,*59
1495659627.49,36286,14.63,73456.3,-5.17,-6.23,-6.13,0,*59
1495659628.73,36287,14.63,73458.8,-5.17,-6.23,-6.23,0,*5B
1495659629.97,36288,14.69,73462.0,-5.13,-6.23,-6.19,0,*59
1495659631.22,36289,14.63,73456.5,-5.17,-6.23,-6.23,0,*55
1495659632.44,36290,14.69,73458.0,-5.17,-6.27,-6.35,0,*5E
1495659633.64,36291,14.63,73456.8,-5.17,-6.35,-6.35,0,*5C
1495659634.88,36292,14.63,73456.0,-5.17,-6.27,-6.23,0,*5B
1495659636.08,36293,14.69,73460.8,-5.17,-6.35,-6.39,0,*52
1495659637.27,36294,14.69,73458.3,-5.17,-6.39,-6.39,0,*59
1495659638.46,36295,14.69,73456.8,-5.17,-6.47,-6.47,0,*58
1495659639.67,36296,14.63,73456.8,-5.17,-6.51,-6.47,0,*5C
1495659640.87,36297,14.69,73456.5,-5.17,-6.59,-6.51,0,*52
1495659642.1,36298,14.69,73456.5,-5.19,-6.51,-6.51,0,*5B
1495659643.32,36299,14.63,73456.0,-5.19,-6.43,-6.39,0,*57
1495659644.54,36300,14.69,73458.3,-5.19,-6.31,-6.31,0,*5B
1495659645.82,36301,14.69,73458.8,-5.19,-6.27,-6.19,0,*57
1495659647.04,36302,14.69,73456.5,-5.19,-6.31,-6.31,0,*59
1495659648.27,36303,14.69,73458.3,-5.19,-6.39,-6.31,0,*50
1495659649.54,36304,14.63,73452.5,-5.19,-6.19,-6.27,0,*52
1495659650.77,36305,14.63,73454.8,-5.19,-6.31,-6.31,0,*5E
1495659652.04,36306,14.63,73454.5,-5.19,-6.27,-6.27,0,*5D
1495659653.29,36307,14.69,73456.3,-5.19,-6.13,-6.19,0,*56
1495659654.5,36308,14.63,73456.0,-5.19,-6.05,-6.13,0,*54
1495659655.72,36309,14.63,73452.0,-5.19,-6.13,-6.13,0,*52
1495659656.92,36310,14.69,73458.8,-5.17,-6.01,-6.01,0,*54
1495659658.11,36311,14.69,73454.8,-5.17,-6.01,-6.01,0,*55
1495659659.31,36312,14.63,73454.0,-5.17,-6.01,-5.97,0,*5A
1495659660.52,36313,14.63,73454.0,-5.19,-6.05,-6.01,0,*5D
1495659661.72,36314,14.69,73456.0,-5.17,-6.01,-6.05,0,*54
1495659662.91,36315,14.63,73452.8,-5.17,-6.01,-6.01,0,*51
1495659664.13,36316,14.63,73454.8,-5.13,-5.89,-5.97,0,*59
1495659665.33,36317,14.69,73456.8,-5.17,-5.97,-6.09,0,*57
1495659666.52,36318,14.69,73458.0,-5.17,-6.01,-6.01,0,*5C
1495659667.77,36319,14.69,73458.5,-5.13,-5.93,-5.93,0,*59
1495659669.03,36320,14.63,73454.0,-5.13,-5.93,-5.93,0,*53
1495659670.28,36321,14.69,73458.0,-5.13,-5.93,-5.89,0,*59
1495659671.47,36322,14.69,73456.8,-5.17,-5.97,-5.97,0,*55
1495659672.7,36323,14.63,73452.0,-5.13,-5.93,-5.97,0,*54
1495659673.89,36324,14.63,73454.3,-5.13,-6.05,-5.97,0,*5F
1495659675.08,36325,14.69,73460.0,-5.13,-6.05,-6.05,0,*56
1495659676.27,36326,14.63,73454.5,-5.13,-6.05,-6.09,0,*59
1495659677.46,36327,14.69,73458.8,-5.13,-6.09,-6.09,0,*54
1495659678.66,36328,14.69,73458.8,-5.17,-6.13,-6.13,0,*5F
1495659679.85,36329,14.69,73456.0,-5.13,-6.09,-6.09,0,*5A
1495659681.08,36330,14.63,73458.0,-5.13,-6.09,-6.19,0,*53
1495659682.32,36331,14.69,73456.3,-5.17,-6.23,-6.23,0,*57
1495659683.56,36332,14.69,73456.5,-5.17,-6.27,-6.27,0,*54
1495659684.77,36333,14.69,73456.5,-5.17,-6.35,-6.35,0,*55
1495659685.99,36334,14.69,73456.3,-5.17,-6.27,-6.35,0,*51
1495659687.23,36335,14.63,73452.5,-5.11,-6.23,-6.31,0,*56
1495659688.46,36336,14.63,73454.5,-5.13,-6.23,-6.31,0,*57
1495659689.66,36337,14.69,73456.8,-5.17,-6.35,-6.35,0,*51
1495659690.86,36338,14.63,73452.3,-5.13,-6.31,-6.31,0,*5A
1495659692.09,36339,14.63,73456.0,-5.13,-6.23,-6.31,0,*58
1495659693.29,36340,14.63,73452.3,-5.17,-6.31,-6.31,0,*51
1495659694.51,36341,14.63,73452.8,-5.13,-6.23,-6.35,0,*53
1495659695.73,36342,14.69,73456.3,-5.13,-6.23,-6.31,0,*54
1495659696.93,36343,14.69,73458.0,-5.13,-6.31,-6.35,0,*52
1495659698.13,36344,14.63,73452.8,-5.17,-6.47,-6.39,0,*5C
1495659699.32,36345,14.69,73456.8,-5.17,-6.39,-6.39,0,*54
1495659700.52,36346,14.69,73454.8,-5.13,-6.43,-6.43,0,*53
1495659701.71,36347,14.63,73452.8,-5.17,-6.47,-6.47,0,*56
1495659702.91,36348,14.69,73454.5,-5.17,-6.47,-6.47,0,*59
1495659704.11,36349,14.69,73454.8,-5.17,-6.47,-6.59,0,*57
1495659705.31,36350,14.69,73454.0,-5.17,-6.51,-6.51,0,*50
1495659706.51,36351,14.63,73452.0,-5.17,-6.59,-6.59,0,*51
1495659707.73,36352,14.63,73452.8,-5.17,-6.59,-6.63,0,*5B
1495659708.95,36353,14.63,73458.3,-5.19,-6.69,-6.69,0,*5D
1495659710.18,36354,14.63,73454.0,-5.19,-6.63,-6.69,0,*50
1495659711.42,36355,14.69,73458.5,-5.19,-6.63,-6.69,0,*51
1495659712.64,36356,14.69,73452.5,-5.19,-6.77,-6.69,0,*57
1495659713.86,36357,14.63,73454.0,-5.19,-6.69,-6.69,0,*59
1495659715.07,36358,14.63,73452.8,-5.19,-6.69,-6.77,0,*59
1495659716.29,36359,14.63,73454.8,-5.19,-6.77,-6.69,0,*58
1495659717.51,36360,14.69,73454.0,-5.19,-6.69,-6.77,0,*52
1495659718.71,36361,14.69,73456.5,-5.21,-6.69,-6.77,0,*58
1495659719.9,36362,14.69,73454.8,-5.21,-6.69,-6.69,0,*54
1495659721.1,36363,14.69,73456.8,-5.21,-6.77,-6.69,0,*5A
1495659722.29,36364,14.63,73454.3,-5.21,-6.69,-6.69,0,*52
1495659723.48,36365,14.69,73456.8,-5.21,-6.69,-6.69,0,*53
1495659724.67,36366,14.69,73452.8,-5.21,-6.69,-6.69,0,*50
1495659725.87,36367,14.69,73456.0,-5.25,-6.81,-6.73,0,*58
1495659727.09,36368,14.63,73452.3,-5.27,-6.73,-6.73,0,*58
1495659728.32,36369,14.63,73452.3,-5.27,-6.81,-6.81,0,*59
1495659729.55,36370,14.63,73452.3,-5.27,-6.81,-6.73,0,*5C
1495659730.78,36371,14.63,73454.3,-5.27,-6.81,-6.81,0,*50
1495659732.01,36372,14.69,73458.3,-5.27,-6.73,-6.81,0,*5E
1495659733.24,36373,14.63,73454.5,-5.27,-6.81,-6.81,0,*52
1495659734.47,36374,14.63,73452.5,-5.27,-6.81,-6.81,0,*55
1495659735.7,36375,14.63,73454.3,-5.27,-6.81,-6.73,0,*59
1495659736.9,36376,14.63,73454.0,-5.25,-6.81,-6.81,0,*55
1495659738.13,36377,14.69,73456.5,-5.27,-6.81,-6.81,0,*56
1495659739.34,36378,14.63,73452.8,-5.29,-6.77,-6.85,0,*5A
1495659740.55,36379,14.63,73452.8,-5.29,-6.77,-6.77,0,*56
1495659741.77,36380,14.63,73452.0,-5.31,-6.73,-6.77,0,*5D
1495659742.97,36381,14.63,73452.5,-5.29,-6.77,-6.73,0,*55
1495659744.2,36382,14.63,73452.8,-5.29,-6.73,-6.63,0,*53
1495659745.47,36383,14.69,73458.5,-5.31,-6.63,-6.63,0,*5A
1495659746.67,36384,14.63,73452.0,-5.29,-6.73,-6.73,0,*54
1495659747.88,36385,14.69,73456.5,-5.29,-6.85,-6.77,0,*58
1495659749.08,36386,14.63,73452.5,-5.29,-6.85,-6.77,0,*5B
1495659750.31,36387,14.63,73452.0,-5.31,-6.77,-6.77,0,*5E
1495659751.56,36388,14.69,73456.5,-5.31,-6.77,-6.63,0,*54
1495659752.76,36389,14.63,73454.8,-5.29,-6.73,-6.73,0,*59
1495659754.01,36390,14.69,73458.0,-5.31,-6.63,-6.73,0,*59
1495659755.21,36391,14.69,73454.3,-5.29,-6.73,-6.73,0,*50
1495659756.43,36392,14.69,73458.8,-5.31,-6.73,-6.85,0,*53
1495659757.66,36393,14.63,73452.5,-5.33,-6.89,-6.81,0,*51
1495659758.88,36394,14.63,73454.8,-5.33,-6.81,-6.77,0,*57
1495659760.09,36395,14.69,73454.3,-5.33,-6.69,-6.77,0,*50
1495659761.32,36396,14.69,73454.0,-5.33,-6.77,-6.81,0,*55
1495659762.54,36397,14.69,73458.8,-5.33,-6.89,-6.81,0,*55
1495659763.77,36398,14.63,73452.3,-5.33,-6.77,-6.81,0,*5B
1495659764.98,36399,14.69,73452.8,-5.33,-6.77,-6.69,0,*5C
1495659766.21,36400,14.69,73452.5,-5.33,-6.77,-6.77,0,*54
1495659767.4,36401,14.69,73452.8,-5.35,-6.69,-6.77,0,*5C
1495659768.61,36402,14.63,73454.5,-5.33,-6.69,-6.69,0,*56
1495659769.81,36403,14.69,73454.8,-5.33,-6.69,-6.69,0,*57
1495659771.02,36404,14.63,73452.5,-5.33,-6.69,-6.69,0,*50
1495659772.23,36405,14.69,73456.3,-5.33,-6.69,-6.69,0,*51
1495659773.45,36406,14.63,73452.3,-5.33,-6.77,-6.69,0,*5D
1495659774.67,36407,14.63,73452.3,-5.33,-6.77,-6.77,0,*53
1495659775.86,36408,14.63,73450.3,-5.35,-6.69,-6.69,0,*5A
1495659777.05,36409,14.63,73452.0,-5.35,-6.69,-6.77,0,*54
1495659778.26,36410,14.63,73454.5,-5.35,-6.63,-6.77,0,*56
1495659779.47,36411,14.63,73454.3,-5.35,-6.63,-6.77,0,*57
1495659780.69,36412,14.69,73452.5,-5.33,-6.77,-6.69,0,*58
1495659781.92,36413,14.63,73452.0,-5.33,-6.77,-6.81,0,*5F
1495659783.11,36414,14.63,73454.5,-5.35,-6.69,-6.81,0,*51
1495659784.32,36415,14.63,73450.0,-5.35,-6.77,-6.81,0,*5F
1495659785.51,36416,14.69,73454.0,-5.35,-6.89,-6.89,0,*55
1495659786.76,36417,14.69,73452.0,-5.39,-6.93,-6.93,0,*58
1495659787.98,36418,14.63,73448.0,-5.39,-6.93,-6.85,0,*50
1495659789.22,36419,14.63,73450.5,-5.39,-6.97,-6.97,0,*56
1495659790.47,36420,14.63,73450.3,-5.39,-6.93,-6.93,0,*5C
1495659791.72,36421,14.63,73452.3,-5.39,-6.93,-6.93,0,*5D
1495659792.96,36422,14.69,73454.8,-5.39,-7.01,-6.97,0,*50
1495659794.21,36423,14.63,73452.0,-5.39,-6.97,-6.97,0,*5F
1495659795.48,36424,14.63,73448.3,-5.41,-7.01,-7.01,0,*57
1495659796.73,36425,14.69,73454.0,-5.41,-7.01,-7.11,0,*57
1495659797.97,36426,14.63,73452.0,-5.41,-7.11,-7.11,0,*55
1495659799.22,36427,14.63,73450.5,-5.41,-7.01,-7.11,0,*55
1495659800.5,36428,14.63,73452.3,-5.41,-7.01,-7.01,0,*5B
1495659801.77,36429,14.63,73454.0,-5.41,-7.01,-7.01,0,*5A
1495659803.02,36430,14.69,73452.8,-5.41,-7.11,-7.01,0,*53
1495659804.27,36431,14.69,73452.5,-5.45,-7.05,-7.15,0,*56
1495659805.5,36432,14.63,73452.5,-5.43,-7.01,-7.11,0,*53
1495659806.72,36433,14.63,73456.0,-5.43,-7.11,-7.01,0,*52
1495659807.93,36434,14.63,73454.0,-5.43,-7.11,-7.11,0,*54
1495659809.16,36435,14.63,73454.0,-5.45,-7.15,-7.15,0,*53
1495659810.39,36436,14.63,73452.8,-5.45,-7.15,-7.11,0,*54
1495659811.64,36437,14.63,73450.8,-5.45,-7.05,-7.15,0,*50
1495659812.87,36438,14.63,73454.0,-5.45,-7.15,-7.15,0,*5E
1495659814.1,36439,14.63,73452.8,-5.45,-7.19,-7.19,0,*5F
1495659815.33,36440,14.69,73454.8,-5.45,-7.19,-7.19,0,*51
1495659816.56,36441,14.63,73454.3,-5.45,-7.19,-7.19,0,*50
1495659817.79,36442,14.63,73448.5,-5.49,-7.23,-7.23,0,*5F
1495659819.01,36443,14.69,73452.5,-5.49,-7.11,-7.19,0,*56
1495659820.28,36444,14.63,73454.3,-5.45,-7.05,-7.05,0,*55
1495659821.51,36445,14.63,73452.0,-5.49,-7.11,-7.11,0,*58
1495659822.74,36446,14.63,73452.8,-5.49,-7.19,-7.19,0,*5B
1495659824.01,36447,14.63,73454.0,-5.45,-7.05,-7.05,0,*56
1495659825.24,36448,14.63,73452.5,-5.49,-7.11,-7.11,0,*55
1495659826.47,36449,14.69,73458.8,-5.49,-7.11,-7.11,0,*54
1495659827.72,36450,14.69,73456.8,-5.45,-7.05,-7.15,0,*51
1495659828.95,36451,14.63,73454.0,-5.49,-7.11,-7.11,0,*5D
1495659830.18,36452,14.63,73452.8,-5.49,-7.11,-7.11,0,*5E
1495659831.38,36453,14.63,73454.5,-5.51,-7.19,-7.19,0,*56
1495659832.59,36454,14.63,73456.0,-5.51,-7.11,-7.11,0,*51
1495659833.79,36455,14.63,73452.0,-5.51,-7.19,-7.19,0,*50
1495659835.02,36456,14.63,73454.8,-5.53,-7.15,-7.15,0,*51
1495659836.25,36457,14.63,73454.3,-5.53,-7.23,-7.23,0,*50
1495659837.52,36458,14.69,73456.8,-5.53,-7.27,-7.27,0,*5F
1495659838.78,36459,14.63,73456.0,-5.53,-7.27,-7.23,0,*5A
1495659840.05,36460,14.63,73452.0,-5.53,-7.27,-7.27,0,*54
1495659841.32,36461,14.69,73458.8,-5.53,-7.31,-7.31,0,*55
1495659842.59,36462,14.63,73454.3,-5.53,-7.27,-7.31,0,*51
1495659843.87,36463,14.69,73458.5,-5.53,-7.27,-7.27,0,*57
1495659845.11,36464,14.69,73456.3,-5.55,-7.43,-7.39,0,*5B
1495659846.39,36465,14.63,73458.5,-5.57,-7.43,-7.57,0,*50
1495659847.58,36466,14.63,73456.3,-5.55,-7.53,-7.53,0,*54
1495659848.82,36467,14.63,73452.3,-5.57,-7.49,-7.43,0,*5D
1495659850.04,36468,14.63,73456.0,-5.57,-7.49,-7.49,0,*58
1495659851.29,36469,14.63,73456.5,-5.57,-7.43,-7.49,0,*53
1495659852.51,36470,14.63,73456.3,-5.61,-7.49,-7.49,0,*54
1495659853.76,36471,14.63,73456.5,-5.61,-7.49,-7.39,0,*52
1495659854.97,36472,14.63,73456.3,-5.61,-7.49,-7.53,0,*5D
1495659856.22,36473,14.63,73452.8,-5.61,-7.39,-7.49,0,*50
1495659857.44,36474,14.63,73458.0,-5.63,-7.35,-7.49,0,*59
1495659858.68,36475,14.63,73454.3,-5.61,-7.39,-7.49,0,*56
1495659859.93,36476,14.69,73456.3,-5.63,-7.35,-7.39,0,*5C
1495659861.18,36477,14.63,73456.5,-5.63,-7.35,-7.35,0,*51
1495659862.43,36478,14.63,73456.3,-5.63,-7.31,-7.31,0,*5E
1495659863.65,36479,14.63,73454.3,-5.63,-7.31,-7.23,0,*5C
1495659864.88,36480,14.63,73458.3,-5.61,-7.19,-7.19,0,*5B
1495659866.09,36481,14.63,73456.5,-5.63,-7.19,-7.19,0,*58
1495659867.29,36482,14.63,73454.8,-5.63,-7.11,-7.19,0,*53
1495659868.51,36483,14.63,73458.8,-5.63,-7.11,-7.05,0,*5F
1495659869.75,36484,14.63,73456.3,-5.63,-7.05,-7.05,0,*5D
1495659870.98,36485,14.63,73456.0,-5.65,-7.11,-7.11,0,*5A
1495659872.23,36486,14.63,73454.5,-5.63,-6.93,-6.97,0,*5B
1495659873.48,36487,14.63,73456.0,-5.65,-7.11,-7.01,0,*59
1495659874.7,36488,14.63,73456.0,-5.65,-7.15,-7.15,0,*57
1495659875.93,36489,14.63,73454.8,-5.65,-7.15,-7.15,0,*56
1495659877.15,36490,14.63,73454.8,-5.65,-7.23,-7.23,0,*5E
1495659878.35,36491,14.63,73456.3,-5.63,-7.11,-7.19,0,*51
1495659879.58,36492,14.63,73458.5,-5.65,-7.23,-7.15,0,*59
1495659880.8,36493,14.63,73456.5,-5.65,-7.23,-7.23,0,*5D
1495659882.03,36494,14.63,73456.5,-5.65,-7.23,-7.23,0,*5A
1495659883.25,36495,14.63,73458.0,-5.65,-7.23,-7.23,0,*5B
1495659884.48,36496,14.63,73456.3,-5.65,-7.15,-7.23,0,*5D
1495659885.7,36497,14.63,73456.5,-5.65,-7.15,-7.15,0,*59
1495659886.93,36498,14.63,73458.0,-5.65,-7.15,-7.23,0,*53
1495659888.12,36499,14.63,73458.3,-5.67,-7.15,-7.15,0,*55
1495659889.32,36500,14.63,73458.3,-5.67,-7.11,-7.15,0,*50
1495659890.52,36501,14.63,73458.0,-5.67,-7.15,-7.11,0,*51
1495659891.75,36502,14.63,73458.8,-5.65,-7.15,-7.11,0,*50
1495659892.98,36503,14.63,73458.5,-5.65,-7.23,-7.23,0,*55
1495659894.17,36504,14.63,73456.3,-5.67,-7.23,-7.15,0,*55
1495659895.4,36505,14.63,73458.5,-5.65,-7.23,-7.23,0,*53
1495659896.65,36506,14.63,73458.0,-5.67,-7.35,-7.43,0,*53
1495659897.9,36507,14.63,73458.5,-5.67,-7.57,-7.57,0,*53
1495659899.15,36508,14.63,73458.3,-5.67,-7.57,-7.57,0,*5C
1495659900.41,36509,14.63,73458.8,-5.71,-7.57,-7.61,0,*5F
1495659901.68,36510,14.63,73458.8,-5.69,-7.57,-7.57,0,*5B
1495659902.96,36511,14.63,73456.8,-5.69,-7.65,-7.69,0,*56
1495659904.19,36512,14.63,73456.8,-5.71,-7.73,-7.83,0,*5F
1495659905.45,36513,14.63,73456.5,-5.71,-7.73,-7.73,0,*51
1495659906.65,36514,14.63,73458.8,-5.71,-7.87,-7.83,0,*52
1495659907.89,36515,14.63,73456.0,-5.73,-7.87,-7.91,0,*52
1495659909.14,36516,14.63,73458.3,-5.73,-7.77,-7.87,0,*59
1495659910.4,36517,14.63,73456.5,-5.75,-7.73,-7.73,0,*51
1495659911.67,36518,14.63,73456.0,-5.73,-7.61,-7.61,0,*58
1495659912.92,36519,14.63,73458.3,-5.75,-7.61,-7.65,0,*5B
1495659914.18,36520,14.63,73456.8,-5.75,-7.61,-7.61,0,*55
1495659915.37,36521,14.63,73460.8,-5.75,-7.53,-7.53,0,*54
1495659916.56,36522,14.63,73458.5,-5.75,-7.53,-7.53,0,*57
1495659917.83,36523,14.63,73462.0,-5.77,-7.57,-7.69,0,*59
1495659919.09,36524,14.63,73458.3,-5.79,-7.57,-7.57,0,*5D
1495659920.36,36525,14.69,73460.0,-5.77,-7.57,-7.69,0,*5F
1495659921.64,36526,14.63,73460.5,-5.77,-7.65,-7.65,0,*51
1495659922.89,36527,14.63,73462.5,-5.79,-7.65,-7.65,0,*5E
1495659924.11,36528,14.63,73462.5,-5.79,-7.53,-7.65,0,*54
1495659925.33,36529,14.63,73458.3,-5.79,-7.57,-7.53,0,*54
1495659926.56,36530,14.63,73456.3,-5.79,-7.53,-7.57,0,*5C
1495659927.81,36531,14.63,73462.5,-5.79,-7.57,-7.57,0,*59
1495659929.06,36532,14.63,73456.8,-5.79,-7.65,-7.57,0,*5B
1495659930.31,36533,14.63,73460.3,-5.83,-7.61,-7.61,0,*5E
1495659931.55,36534,14.63,73458.0,-5.83,-7.69,-7.69,0,*59
1495659932.82,36535,14.63,73460.5,-5.85,-7.61,-7.69,0,*56
1495659934.09,36536,14.63,73462.3,-5.85,-7.69,-7.73,0,*56
1495659935.34,36537,14.63,73456.3,-5.83,-7.73,-7.73,0,*5A
1495659936.59,36538,14.63,73460.5,-5.83,-7.69,-7.73,0,*5E
1495659937.85,36539,14.63,73462.0,-5.85,-7.61,-7.69,0,*5A
1495659939.12,36540,14.63,73462.0,-5.85,-7.61,-7.73,0,*5F
1495659940.4,36541,14.63,73460.8,-5.85,-7.57,-7.57,0,*5D
1495659941.65,36542,14.63,73458.8,-5.87,-7.61,-7.65,0,*58
1495659942.9,36543,14.63,73460.0,-5.87,-7.65,-7.65,0,*5D
1495659944.15,36544,14.63,73458.0,-5.87,-7.65,-7.73,0,*5D
1495659945.4,36545,14.63,73458.5,-5.87,-7.61,-7.65,0,*5F
1495659946.68,36546,14.63,73460.8,-5.89,-7.65,-7.65,0,*56
1495659947.95,36547,14.63,73460.5,-5.89,-7.65,-7.65,0,*57
1495659949.23,36548,14.63,73460.3,-5.89,-7.73,-7.77,0,*5C
1495659950.5,36549,14.63,73458.8,-5.89,-7.65,-7.73,0,*5E
1495659951.75,36550,14.63,73460.0,-5.87,-7.65,-7.73,0,*58
1495659953.03,36551,14.63,73462.8,-5.89,-7.65,-7.65,0,*50
1495659954.28,36552,14.63,73460.0,-5.91,-7.77,-7.77,0,*5A
1495659955.52,36553,14.63,73456.5,-5.91,-7.69,-7.69,0,*5B
1495659956.77,36554,14.63,73460.0,-5.91,-7.65,-7.69,0,*50
1495659958.04,36555,14.63,73460.3,-5.93,-7.69,-7.73,0,*54
1495659959.29,36556,14.69,73462.8,-5.91,-7.69,-7.69,0,*5E
1495659960.53,36557,14.63,73458.3,-5.91,-7.65,-7.69,0,*53
1495659961.81,36558,14.63,73462.3,-5.93,-7.69,-7.73,0,*59
1495659963.06,36559,14.63,73462.8,-5.93,-7.69,-7.83,0,*57
1495659964.33,36560,14.63,73462.5,-5.93,-7.69,-7.69,0,*59
1495659965.61,36561,14.63,73458.0,-5.93,-7.73,-7.73,0,*58
1495659966.86,36562,14.63,73460.0,-5.91,-7.69,-7.65,0,*55
1495659968.14,36563,14.63,73462.0,-5.93,-7.65,-7.57,0,*5B
1495659969.41,36564,14.63,73462.0,-5.93,-7.69,-7.65,0,*51
1495659970.66,36565,14.63,73464.3,-5.97,-7.73,-7.73,0,*58
1495659971.91,36566,14.63,73462.0,-5.95,-7.65,-7.69,0,*55
1495659973.16,36567,14.63,73462.5,-5.95,-7.65,-7.69,0,*54
1495659974.4,36568,14.63,73462.8,-5.97,-7.69,-7.65,0,*59
1495659975.65,36569,14.63,73464.5,-5.95,-7.69,-7.69,0,*56
1495659976.89,36570,14.63,73458.0,-5.97,-7.69,-7.73,0,*57
1495659978.14,36571,14.63,73462.8,-5.97,-7.73,-7.73,0,*5D
1495659979.4,36572,14.63,73462.3,-5.95,-7.73,-7.73,0,*5C
1495659980.65,36573,14.63,73464.0,-5.97,-7.73,-7.73,0,*5F
1495659981.93,36574,14.69,73464.5,-5.99,-7.73,-7.77,0,*52
1495659983.19,36575,14.63,73460.8,-5.99,-7.91,-7.91,0,*57
1495659984.45,36576,14.63,73460.3,-5.99,-7.91,-7.91,0,*54
1495659985.69,36577,14.63,73462.3,-6.01,-7.91,-7.91,0,*57
1495659986.91,36578,14.63,73460.3,-5.99,-7.87,-7.87,0,*5A
1495659988.13,36579,14.63,73460.8,-5.99,-7.87,-7.87,0,*5B
1495659989.33,36580,14.63,73462.5,-6.01,-7.87,-7.87,0,*5F
1495659990.54,36581,14.63,73460.0,-6.01,-7.87,-7.91,0,*59
1495659991.79,36582,14.63,73464.8,-6.01,-7.73,-7.73,0,*5D
1495659993.04,36583,14.63,73464.8,-6.01,-7.77,-7.73,0,*58
1495659994.26,36584,14.63,73460.5,-6.05,-7.83,-7.77,0,*54
1495659995.49,36585,14.63,73462.5,-6.07,-7.83,-7.87,0,*58
1495659996.69,36586,14.63,73464.3,-6.05,-7.83,-7.83,0,*5D
1495659997.91,36587,14.63,73464.0,-6.07,-7.83,-7.83,0,*5E
1495659999.16,36588,14.63,73462.5,-6.05,-7.77,-7.91,0,*5B
1495660000.38,36589,14.63,73466.3,-6.07,-7.83,-7.87,0,*54
1495660001.61,36590,14.63,73462.0,-6.07,-7.83,-7.83,0,*58
1495660002.81,36591,14.63,73462.0,-6.05,-7.83,-7.83,0,*5B
1495660004.03,36592,14.63,73462.3,-6.07,-7.87,-7.87,0,*5A
1495660005.28,36593,14.63,73462.5,-6.07,-7.95,-7.87,0,*58
1495660006.51,36594,14.63,73464.8,-6.07,-7.87,-7.87,0,*5C
1495660007.78,36595,14.63,73466.3,-6.07,-7.95,-7.95,0,*5D
1495660009.05,36596,14.63,73466.0,-6.07,-7.95,-7.95,0,*5E
1495660010.32,36597,14.63,73464.0,-6.11,-7.91,-7.99,0,*50
1495660011.51,36598,14.63,73462.8,-6.09,-7.87,-7.87,0,*5E
1495660012.73,36599,14.63,73464.8,-6.09,-7.87,-7.95,0,*5C
1495660014.0,36600,14.63,73460.3,-6.11,-7.91,-7.99,0,*5D
1495660015.27,36601,14.63,73460.5,-6.11,-7.99,-7.99,0,*54
1495660016.55,36602,14.63,73460.0,-6.11,-7.99,-7.91,0,*5F
1495660017.81,36603,14.63,73462.8,-6.11,-7.91,-7.99,0,*5E
1495660019.06,36604,14.63,73460.0,-6.13,-7.91,-8.03,0,*57
1495660020.3,36605,14.63,73462.3,-6.13,-7.91,-7.91,0,*52
1495660021.55,36606,14.63,73464.5,-6.13,-7.91,-7.99,0,*59
1495660022.75,36607,14.63,73464.8,-6.13,-7.87,-7.87,0,*50
1495660023.97,36608,14.63,73462.5,-6.13,-7.87,-7.91,0,*58
1495660025.17,36609,14.63,73460.0,-6.13,-7.87,-7.87,0,*5E
1495660026.42,36610,14.63,73466.3,-6.13,-7.91,-7.91,0,*56
1495660027.64,36611,14.63,73462.3,-6.13,-7.91,-7.87,0,*50
1495660028.84,36612,14.63,73464.8,-6.13,-7.87,-7.87,0,*54
1495660030.04,36613,14.63,73460.5,-6.13,-7.87,-7.87,0,*55
1495660031.25,36614,14.63,73466.5,-6.13,-7.87,-7.87,0,*52
1495660032.47,36615,14.63,73462.0,-6.13,-7.87,-7.91,0,*54
1495660033.71,36616,14.63,73466.5,-6.13,-7.91,-7.91,0,*50
1495660034.95,36617,14.63,73464.3,-6.13,-7.73,-7.87,0,*5A
1495660036.19,36618,14.63,73462.3,-6.17,-7.91,-7.91,0,*5A
1495660037.43,36619,14.63,73462.5,-6.17,-7.95,-7.91,0,*5F
1495660038.68,36620,14.63,73466.0,-6.17,-7.95,-7.95,0,*51
1495660039.95,36621,14.63,73460.5,-6.19,-7.99,-7.91,0,*56
1495660041.23,36622,14.63,73462.0,-6.19,-7.95,-7.91,0,*59
1495660042.5,36623,14.63,73460.3,-6.19,-7.99,-7.95,0,*50
1495660043.77,36624,14.63,73460.8,-6.19,-7.99,-7.99,0,*5B
1495660045.05,36625,14.63,73464.0,-6.19,-7.95,-7.95,0,*5A
1495660046.32,36626,14.63,73466.0,-6.19,-7.95,-7.91,0,*5D
1495660047.54,36627,14.63,73462.5,-6.17,-7.91,-7.87,0,*51
1495660048.79,36628,14.63,73464.3,-6.19,-7.91,-7.83,0,*54
1495660050.04,36629,14.63,73462.8,-6.21,-7.91,-7.91,0,*5D
1495660051.28,36630,14.63,73462.5,-6.21,-7.95,-7.95,0,*55
1495660052.52,36631,14.63,73460.5,-6.21,-7.99,-7.95,0,*58
1495660053.79,36632,14.63,73462.0,-6.19,-7.95,-7.99,0,*50
1495660055.04,36633,14.63,73462.0,-6.21,-7.95,-7.95,0,*56
1495660056.28,36634,14.63,73462.8,-6.21,-7.99,-7.95,0,*5D
1495660057.52,36635,14.63,73464.0,-6.21,-7.95,-7.99,0,*5C
1495660058.77,36636,14.63,73462.0,-6.21,-7.95,-7.95,0,*53
1495660060.03,36637,14.63,73460.8,-6.23,-7.95,-8.03,0,*50
1495660061.3,36638,14.63,73464.0,-6.23,-7.95,-7.95,0,*5F
1495660062.54,36639,14.63,73466.0,-6.21,-7.91,-7.95,0,*58
1495660063.81,36640,14.63,73462.5,-6.23,-7.99,-7.95,0,*5C
1495660065.08,36641,14.63,73462.8,-6.23,-7.99,-8.03,0,*5D
1495660066.32,36642,14.63,73462.0,-6.21,-7.95,-7.95,0,*50
1495660067.59,36643,14.63,73462.0,-6.23,-7.95,-7.99,0,*5F
1495660068.87,36644,14.63,73464.8,-6.23,-7.95,-7.99,0,*58
1495660070.11,36645,14.63,73462.0,-6.25,-7.95,-7.99,0,*5F
1495660071.36,36646,14.63,73462.5,-6.25,-7.95,-7.95,0,*50
1495660072.61,36647,14.63,73464.5,-6.25,-7.95,-7.95,0,*51
1495660073.85,36648,14.63,73468.3,-6.25,-7.95,-7.99,0,*52
1495660075.12,36649,14.63,73464.8,-6.29,-7.99,-7.99,0,*53
1495660076.38,36650,14.63,73464.0,-6.29,-7.99,-7.99,0,*5B
1495660077.6,36651,14.63,73466.0,-6.25,-7.87,-7.95,0,*55
1495660078.81,36652,14.63,73462.8,-6.25,-7.87,-7.87,0,*55
1495660080.01,36653,14.63,73466.3,-6.25,-7.87,-7.87,0,*54
1495660081.27,36654,14.63,73464.0,-6.29,-7.91,-7.91,0,*5F
1495660082.53,36655,14.63,73462.5,-6.29,-7.91,-7.91,0,*5E
1495660083.8,36656,14.63,73462.8,-6.29,-7.91,-7.91,0,*5D
1495660085.06,36657,14.63,73468.0,-6.29,-7.91,-7.91,0,*5C
1495660086.32,36658,14.63,73466.5,-6.29,-7.91,-7.91,0,*53
1495660087.59,36659,14.63,73466.3,-6.29,-7.99,-7.91,0,*5A
1495660088.85,36660,14.63,73460.0,-6.29,-7.99,-7.99,0,*58
1495660090.11,36661,14.63,73464.5,-6.29,-7.91,-7.99,0,*51
1495660091.38,36662,14.63,73464.0,-6.29,-7.99,-7.99,0,*5A
1495660092.62,36663,14.63,73466.0,-6.31,-7.99,-7.99,0,*52
1495660093.86,36664,14.63,73466.0,-6.31,-7.99,-7.91,0,*5D
1495660095.1,36665,14.63,73466.8,-6.31,-7.91,-7.91,0,*54
1495660096.37,36666,14.63,73464.5,-6.33,-7.95,-7.91,0,*51
1495660097.61,36667,14.63,73464.3,-6.31,-7.91,-7.91,0,*56
1495660098.85,36668,14.63,73464.0,-6.31,-7.91,-7.99,0,*51
1495660100.08,36669,14.63,73466.8,-6.31,-7.91,-7.91,0,*58
1495660101.35,36670,14.63,73464.5,-6.33,-7.95,-8.03,0,*52
1495660102.61,36671,14.63,73468.0,-6.33,-8.03,-8.03,0,*53
1495660103.85,36672,14.63,73464.8,-6.31,-7.99,-7.91,0,*5A
1495660105.09,36673,14.63,73464.5,-6.31,-7.99,-7.91,0,*5B
1495660106.33,36674,14.63,73466.5,-6.31,-8.03,-7.91,0,*50
1495660107.59,36675,14.63,73460.3,-6.33,-8.03,-8.03,0,*57
1495660108.85,36676,14.63,73460.3,-6.33,-8.03,-8.03,0,*54
1495660110.11,36677,14.63,73462.0,-6.33,-8.03,-7.95,0,*55